This is the latest recevied weather packets stored in our database for station/object K0SDS. If no packets are shown the sender has not sent any weather packets the latest 1 day(s).
| Time | Temp. | Humidity | Pressure | Rain* | Wind** | Luminosity | Snow |
|---|---|---|---|---|---|---|---|
| 1778042046 | 8.89° C | 80% | 1015.5 hPa | 0 mm | 0.89 m/s, 354° | 0 W/m² | - |
| 1778041744 | 8.89° C | 78% | 1015.6 hPa | 0 mm | 0.89 m/s, 60° | 0 W/m² | - |
| 1778041443 | 8.89° C | 76% | 1015.4 hPa | 1.78 mm | 1.34 m/s, 71° | 0 W/m² | - |
| 1778041141 | 10° C | 72% | 1015.4 hPa | 1.78 mm | 2.24 m/s, 10° | 0 W/m² | - |
| 1778040838 | 9.44° C | 70% | 1015 hPa | 0 mm | 2.24 m/s, 7° | 0 W/m² | - |
| 1778040535 | 10° C | 63% | 1015.4 hPa | 0 mm | 1.79 m/s, 346° | 0 W/m² | - |
| 1778040233 | 10° C | 69% | 1015.1 hPa | 0 mm | 0.45 m/s, 105° | 0 W/m² | - |
| 1778039928 | 10.56° C | 67% | 1014.9 hPa | 0 mm | 0.45 m/s, 73° | 0 W/m² | - |
| 1778039626 | 10.56° C | 66% | 1015 hPa | 0 mm | 0 m/s | 0 W/m² | - |
| 1778039323 | 10.56° C | 64% | 1014.7 hPa | 0 mm | 0.89 m/s, 93° | 0 W/m² | - |
| 1778039020 | 10.56° C | 58% | 1014.7 hPa | 0 mm | 0.45 m/s, 85° | 0 W/m² | - |
| 1778038717 | 10° C | 68% | 1014.5 hPa | 0 mm | 1.34 m/s, 76° | 0 W/m² | - |
| 1778038414 | 10° C | 70% | 1014.3 hPa | 0 mm | 0.45 m/s, 113° | 0 W/m² | - |
| 1778038111 | 10° C | 74% | 1014.3 hPa | 0 mm | 0.45 m/s, 103° | 0 W/m² | - |
| 1778037808 | 10° C | 74% | 1014 hPa | 0 mm | 0 m/s | 0 W/m² | - |
| 1778037505 | 10° C | 74% | 1014 hPa | 0 mm | 0 m/s | 0 W/m² | - |
| 1778037202 | 10° C | 72% | 1013.7 hPa | 0 mm | 0.45 m/s, 101° | 0 W/m² | - |
| 1778036900 | 10° C | 70% | 1013.4 hPa | 0 mm | 0 m/s | 0 W/m² | - |
| 1778036598 | 10.56° C | 69% | 1013.5 hPa | 0 mm | 0 m/s | 0 W/m² | - |
| 1778036294 | 10° C | 68% | 1013.4 hPa | 0 mm | 0.45 m/s, 70° | 0 W/m² | - |
| 1778035990 | 10° C | 70% | 1013.3 hPa | 0 mm | 0.45 m/s, 93° | 0 W/m² | - |
| 1778035688 | 10° C | 70% | 1013.3 hPa | 0 mm | 0 m/s | 0 W/m² | - |
| 1778035384 | 10° C | 70% | 1013.1 hPa | 0 mm | 0.45 m/s, 80° | 0 W/m² | - |
| 1778035080 | 10.56° C | 71% | 1012.9 hPa | 0 mm | 0.45 m/s, 72° | 0 W/m² | - |
| 1778034778 | 10.56° C | 69% | 1012.9 hPa | 0 mm | 0.45 m/s, 69° | 0 W/m² | - |
* Rain latest hour (hover to see other rain measurements)
** Current wind speed in m/s (hover to see current wind gust speed)